Regional Weather Roundup
Issued by NWS Charleston, SC

Current Version | Previous Version | Graphics & Text | Print | Product List | Glossary On
Versions: 1 2 3 4 5 6 7 8 9 10 11 12 13 14 15 16 17 18 19 20 21 22 23 24 25 26 27 28 29 30 31 32 33 34 35 36 37 38 39 40 41 42 43 44 45 46 47 48 49 50
000
ASUS42 KCHS 210525
RWRCHS

REGIONAL WEATHER ROUNDUP
NATIONAL WEATHER SERVICE CHARLESTON SC
100 AM EDT MON APR 21 2014

NOTE: "FAIR" INDICATES FEW OR NO CLOUDS BELOW 12,000 FEET WITH NO
SIGNIFICANT WEATHER AND/OR OBSTRUCTIONS TO VISIBILITY.

NOT ALL STATIONS ARE QUALITY CONTROLLED BY THE NATIONAL
WEATHER SERVICE. USE DATA WITH CAUTION...ESPECIALLY
DEWPOINT OBSERVATIONS.

SCZ027-030-031-034>040-042>050-210600-
...SOUTH CAROLINA...

CITY           SKY/WX    TMP DP  RH WIND       PRES   REMARKS
N CHARLESTON   CLOUDY    61  48  63 N10       30.11S
WATERFRONT PRK NOT AVBL
FORT JOHNSON     N/A     61  52  72 N12G20    30.14F
MOUNT PLEASANT CLOUDY   N/A N/A N/A N6        30.09S
JOHNS ISLAND   CLOUDY    61  54  77 N9G20     30.10S
PINOPOLIS        N/A     63  52  67 NE15      30.02F
MONCKS CORNER  FAIR      61  52  72 N8        30.11S
SUMMERVILLE    NOT AVBL
BEAUFORT MCAS  CLOUDY    63  50  62 E13       30.10F
BEAUFORT ARPT  CLOUDY    63  54  72 NE18      30.09F
HILTON HEAD IS CLOUDY    63  54  72 N12       30.10F
GEORGETOWN     NOT AVBL
WALTERBORO     CLOUDY    61  52  72 NE9       30.12S
ORANGEBURG     CLEAR     60  46  59 NE7       30.13F
BARNWELL       FAIR      57  45  62 NE6       30.13F
AIKEN          FAIR      54  46  76 CALM      30.17F
MANNING        CLOUDY    63  37  39 N9        30.13S
KINGSTREE      NOT AVBL
COLUMBIA       CLEAR     60  42  51 N3        30.14S
SUMTER         PTCLDY    56  47  71 N6        30.13F
FLORENCE       CLOUDY    60  42  51 NE12      30.13F
MYRTLE BEACH   CLOUDY    57  45  62 N20       30.09S
N MYRTLE BEACH PTCLDY    57  44  62 N16G26    30.09F

$$

GAZ063-065-086>088-099>101-113>116-118-119-134-136>141-150-210600-
...GEORGIA...

CITY           SKY/WX    TMP DP  RH WIND       PRES   REMARKS
SAVANNAH ARPT  CLEAR     60  48  64 NE12G18   30.09F
HUNTER AAF     CLEAR     60  50  67 NE5       30.07F
FORT STEWART   CLEAR     57  53  87 N5        30.09F
STATESBORO     NOT AVBL
SYLVANIA       CLEAR     61  47  62 NE3       30.12S
CLAXTON        FAIR     N/A N/A N/A CALM      30.12S
THOMSON        CLEAR     47  47 100 CALM      30.21R
AUGUSTA-BUSH   CLEAR     50  45  83 NW5       30.14S
AUGUSTA-DANIEL CLEAR     59  43  55 NW7       30.15S
SWAINSBORO     FAIR      50  50 100 N3        30.14F
VIDALIA        CLEAR     57  50  77 NW3       30.13S
ALMA           CLEAR     57  51  80 CALM      30.13R
WAYCROSS       NOT AVBL
JESUP          FAIR      52  52 100 N3        30.11S
BRUNSWICK        N/A     54  54 100 CALM      30.10F VSB 1
SAINT SIMONS   CLEAR     58  54  86 CALM      30.09F

$$

SCZ027-028-034-036>038-045-046-048>050-GAZ119-141-210600-
...LAKE AND SUPPLEMENTAL COASTAL OBSERVATIONS...

STATION/POSITION TIME  TEMP    WIND        PRES    WAVE   SWELL
                       AIR SEA DIR/SP/G            HT/PER HT/PER/DIR
                 (UTC) (F)     (DEG/KT/KT) (MB)    (FT/S) (FT/S/D)
UPR LAKE MARION  NOT AVBL
WINYAH BAY       0500   58     360/  9     1019.0S
LAKE MURRAY      0500   58      10/  2/  3 1020.3S
ACE BASIN NERRS  0500   61      20/  5     1019.0S
FORT PULASKI     0500   63 58   20/ 14/ 17 1019.0F
SAPELO ISLAND    0500   58      10/  1     1019.0S

$$

ANZ835-935-AMZ111-154-330-350-352-354-374-450-454-472-210600-
...C-MAN AND BUOY OBSERVATIONS...

STATION/POSITION TIME  TEMP    WIND        PRES    WAVE   SWELL
                       AIR SEA DIR/SP/G            HT/PER HT/PER/DIR
                 (UTC) (F)     (DEG/KT/KT) (MB)    (FT/S) (FT/S/D)
FOLLY BEACH CMAN 0500   60      10/ 14/ 17 1019.3F
BUOY 41004       NOT AVBL
BUOY 41008       0500   64 63   30/ 17/ 21 1018.0F   6/ 6   3/ 60/12
5E ST. MARYS GA  0500      63                N/A     5/11   2/ 90/11
FRYING PAN BUOY  0500   58 69   10/ 29/ 35 1015.8R  11/ 8   3/110/11
BUOY 41025       0500   58 75  360/ 33/ 41 1013.6F  16/12  11/ 60/12
CAPE LOOKOUT NC  0500   52     360/ 24/ 30 1017.4S
BUOY 41002       NOT AVBL
BUOY 41010       0500   71 75  330/ 16/ 17 1014.7S   8/11   5/ 20/11
BUOY 41012       NOT AVBL
ST AUGUSTINE FL  0500   60     320/  7/  8 1019.4F
CAPERS NEARSHORE NOT AVBL
FRIPP NEARSHORE  0400   63      40/ 14/ 17   N/A


$$


USA.gov is the U.S. government's official web portal to all federal, state and local government web resources and services.